Other Surface Observations
Issued by NWS

Current Version | Previous Version | Text Only | Print | Product List | Glossary On
Versions: 1 2 3 4 5 6 7 8 9 10 11 12 13 14 15 16 17 18 19 20 21 22 23 24 25 26 27 28 29 30 31 32 33 34 35 36 37 38 39 40 41 42 43 44 45 46 47 48 49 50
000
SXUS52 KTAE 270215
OSOTAE
OSOTAE
North Florida/South Alabama/Southwest Georgia Weather Roundup
National Weather Service Tallahassee Florida
1000 PM EDT WED JUN 26 2019

Note: "fair" indicates few or no clouds below 12,000 feet with no
significant weather and/or obstructions to visibility.

!FLZ017-115-028-034-025-270300
...North Florida...

CITY           SKY/WX    TMP DP  RH WIND       PRES   REMARKS
TALL INTL ARPT MOCLDY    85  70  60 CALM      30.10R
FSU LOVE BLDG    N/A     86  68  54 NE3         N/A
APALACHICOLA   FAIR      84  75  74 CALM      30.09S HX  92
PERRY          FAIR      81  71  71 CALM      30.11R
CROSS CITY     FAIR      81  72  74 CALM      30.10R
JACKSONVILLE   MOCLDY    78  69  73 CALM      30.10R
$$

!FLZ112-006-005-002-011-270300
...Florida Panhandle...

CITY           SKY/WX    TMP DP  RH WIND       PRES   REMARKS
MARIANNA       FAIR      88  69  53 CALM      30.10R HX  92
BONIFAY        FAIR      83  76  79 CALM      30.12R HX  91
PANAMA CITY NW FAIR      82  73  74 CALM      30.10R
TYNDALL AFB    FAIR      86  70  57 N3        30.09R HX  91
TYND DRONE APT FAIR      84  76  74 CALM      30.10  HX  93
DE FUNIAK SPR  FAIR      84  68  57 NW5       30.13R
EGLIN AFB      FAIR      85  71  62 NW6       30.11R HX  91
DESTIN         FAIR      88  71  57 CALM      30.11R HX  94
HURLBURT       FAIR      87  72  60 NW5       30.10R HX  93
CRESTVIEW      FAIR      80  72  76 CALM      30.13R
PENSACOLA      FAIR      86  69  56 MISG      30.11R HX  90
$$

!ALZ063-066-270300
...South Alabama...

CITY           SKY/WX    TMP DP  RH WIND       PRES   REMARKS
DOTHAN         FAIR      86  65  49 N7        30.16R
OZARK CAIRNS   FAIR      85  67  54 N6        30.12R
FT RUCKER HELI FAIR      81  69  65 N3        30.13R
RUCKER HELI 3  FAIR      83  69  62 N5        30.13R
RUCKER HELI 2  MOCLDY    83  69  61 N6        30.12R
FLORALA APT    FAIR      78  69  73 CALM      30.15R
ANDALUSIA      FAIR      84  69  60 N5        30.13R
TROY           FAIR      79  70  74 NW5       30.15S
EUFALA         NOT AVBL
MOBILE         FAIR      81  74  79 NW5       30.15R
$$

!GAZ120>161-270300
...Southwest and South Central Georgia...

CITY           SKY/WX    TMP DP  RH WIND       PRES   REMARKS
THOMASVILLE    FAIR      79  72  78 CALM      30.13R
BAINBRIDGE       N/A     84  70  61 MISG      30.11S
MOODY AFB      FAIR      78  73  84 CALM      30.11R
VALDOSTA       FAIR      77  70  79 CALM      30.11R
MOULTRIE       FAIR      81  73  78 CALM      30.13R
BLAKELY        FAIR      79  68  69 CALM      30.13R
ALBANY         FAIR      84  71  65 N7        30.14R
TIFTON         FAIR     N/A N/A N/A CALM      30.12
FITZGERALD     FAIR      78  72  80 CALM      30.14R
CORDELE        FAIR      79  64  60 NW3       30.15R
AMERICUS       FAIR      75  72  88 CALM      30.15F
HOMERVILLE     FAIR      77  68  73 CALM      30.12R
$$

!GMZ750-755-770-775-270300
...Coastal and Buoy Obs...

STATION/POSITION TIME  TEMP    WIND        PRES    VSBY  WAVE
                       AIR SEA DIR/SP/G                  HT/PER
                 (UTC) (F)     (DEG/KT/KT) (MB)    (MI)  (FT/S)
KEATON BEACH     0200   84      10/  3/  4 1019.4R
CEDAR KEY        0200   88      10/  4/  6 1019.2R
C TOWER          NOT AVBL
APALACHICOLA BUO NOT AVBL
PANAMA CITY BUOY NOT AVBL
MOBILE BUOY      0200   85 86   80/  2/  4 1019.9
ORANGE BCH AL BU NOT AVBL
$$



USA.gov is the U.S. government's official web portal to all federal, state and local government web resources and services.